Weather History for EGLF - May, 2013

Change the Weather History Date:

Saturday, May 25, 2013

  Actual Average (EGLL) Record (EGLL)
Temperature  
Mean Temperature 50 °F -  
Max Temperature 59 °F 64 °F 78 °F (2012)
Min Temperature 40 °F 48 °F 41 °F (1997)
Degree Days  
Heating Degree Days 16    
Moisture  
Dew Point 37 °F    
Average Humidity 56    
Maximum Humidity 88    
Minimum Humidity 34    
Precipitation  
Precipitation 0.00 in - - ()
Sea Level Pressure  
Sea Level Pressure 30.16 in    
Wind  
Wind Speed 8 mph ()    
Max Wind Speed 14 mph    
Max Gust Speed -    
Visibility 8.2 miles    
Events      
Averages and records for this station are not official NWS values.
T = Trace of Precipitation, MM = Missing Value Source: Averaged Metar Reports

Daily Weather History Graph

Daily Weather History Graph

Search for Another Location

Airport or City:

Trip Planner

Search our weather history database for the weather conditions in past years. The results will help you decide how hot, cold, wet, or windy it might be!

Date:

Astronomy

May. 25, 2013 Rise Set
Actual Time 4:59 AM BST 9:01 PM BST
Civil Twilight 4:15 AM BST 9:45 PM BST
Nautical Twilight 3:14 AM BST 10:47 PM BST
Astronomical Twilight 1:32 AM BST 12:27 AM BST
Moon 9:31 PM BST 5:15 AM BST
Length of Visible Light 17h 29m
Length of Day
16h 02m
Full, 100% of the Moon is Illuminated
May 25
Full
May 31
Last Quarter
Jun 8
New
Jun 16
First Quarter
Jun 23
Full

Hourly Weather History & Observations

Time (BST) Temp. Windchill Dew Point Humidity Pressure Visibility Wind Dir Wind Speed Gust Speed Precip Events Conditions
12:50 AM 43 °F - 40 °F 85% 30.05 in 15 mi North 9.2 mph - -   Scattered Clouds
3:50 AM 42 °F - 40 °F 88% 30.10 in 9 mi North 6.9 mph - -   Mostly Cloudy
6:50 AM 44 °F - 41 °F 86% 30.14 in 12 mi North 5.8 mph - -   Mostly Cloudy
7:50 AM 44.6 °F 39.7 °F 41.0 °F 87% 30.15 in 6.2 mi NNE 9.2 mph - N/A   Mostly Cloudy
8:20 AM 46.4 °F 42.4 °F 41.0 °F 81% 30.15 in 6.2 mi North 8.1 mph - N/A   Scattered Clouds
8:50 AM 46.4 °F 41.9 °F 39.2 °F 76% 30.15 in 6.2 mi North 9.2 mph - N/A   Scattered Clouds
9:20 AM 48.2 °F - 39.2 °F 71% 30.18 in 6.2 mi North 12.7 mph - N/A   Scattered Clouds
9:50 AM 49 °F - 39 °F 59% 30.18 in 22 mi North 8.1 mph - -   Scattered Clouds
9:50 AM 48.2 °F - 39.2 °F 71% 30.18 in 6.2 mi NNW 10.4 mph - N/A   Scattered Clouds
10:20 AM 50.0 °F - 41.0 °F 71% 30.18 in 6.2 mi NNW 10.4 mph - N/A   Scattered Clouds
10:50 AM 48.2 °F - 39.2 °F 71% 30.18 in 6.2 mi NNW 9.2 mph - N/A   Scattered Clouds
11:20 AM 53.6 °F - 39.2 °F 58% 30.18 in 6.2 mi North 10.4 mph - N/A   Scattered Clouds
11:50 AM 51.8 °F - 33.8 °F 50% 30.18 in 6.2 mi North 10.4 mph - N/A   Mostly Cloudy
12:20 PM 53.6 °F - 35.6 °F 51% 30.18 in 6.2 mi NNE 8.1 mph - N/A   Mostly Cloudy
12:50 PM 54 °F - 38 °F 42% 30.18 in 19 mi North 8.1 mph - -   Scattered Clouds
12:50 PM 55.4 °F - 37.4 °F 51% 30.18 in 6.2 mi North 6.9 mph - N/A   Scattered Clouds
1:20 PM 55.4 °F - 37.4 °F 51% 30.18 in 6.2 mi North 8.1 mph - N/A   Scattered Clouds
1:50 PM 57.2 °F - 37.4 °F 48% 30.15 in 6.2 mi North 6.9 mph - N/A   Scattered Clouds
2:20 PM 55.4 °F - 35.6 °F 47% 30.15 in 6.2 mi Variable 6.9 mph - N/A   Scattered Clouds
2:50 PM 57.2 °F - 33.8 °F 41% 30.15 in 6.2 mi North 8.1 mph - N/A   Scattered Clouds
3:20 PM 57.2 °F - 33.8 °F 41% 30.15 in 6.2 mi NW 9.2 mph - N/A   Scattered Clouds
3:50 PM 58 °F - 38 °F 36% 30.16 in 22 mi North 10.4 mph - -   Mostly Cloudy
3:50 PM 55.4 °F - 33.8 °F 44% 30.15 in 6.2 mi North 11.5 mph - N/A   Scattered Clouds
4:20 PM 59.0 °F - 33.8 °F 39% 30.15 in - NNW 11.5 mph - N/A   Clear
4:50 PM 57.2 °F - 35.6 °F 44% 30.15 in - North 13.8 mph - N/A   Clear
5:20 PM 59.0 °F - 35.6 °F 42% 30.15 in - North 10.4 mph - N/A   Clear
5:50 PM 57.2 °F - 33.8 °F 41% 30.15 in - North 11.5 mph - N/A   Clear
6:20 PM 59.0 °F - 33.8 °F 39% 30.15 in - North 10.4 mph - N/A   Clear
6:50 PM 57 °F - 36 °F 34% 30.15 in 25 mi North 6.9 mph - -   Mostly Cloudy
6:50 PM 57.2 °F - 33.8 °F 41% 30.15 in - North 9.2 mph - N/A   Clear
7:20 PM 55.4 °F - 33.8 °F 44% 30.15 in - NNW 9.2 mph - N/A   Clear
9:50 PM 44 °F - 39 °F 77% 30.17 in 19 mi SW 3.5 mph - -